H1 CPF 2 NER 2022 10 13 9 286 01 glonass135 H2 1600801 9135 41330 2022 10 13 0 0 0 2022 10 16 23 45 0 900 1 1 0 0 0 1 H9 10 0 59865 0.00000 0 -20697432.018 12597473.340 7906632.115 10 0 59865 900.00000 0 -21330181.430 13097879.540 4790494.646 10 0 59865 1800.00000 0 -21582133.481 13457299.609 1581039.358 10 0 59865 2700.00000 0 -21471468.442 13621349.040 -1659220.867 10 0 59865 3600.00000 0 -21028652.307 13541828.241 -4867146.426 10 0 59865 4500.00000 0 -20295016.153 13178980.657 -7980214.985 10 0 59865 5400.00000 0 -19320892.054 12503404.347 -10937754.194 10 0 59865 6300.00000 0 -18163385.434 11497534.202 -13682137.582 10 0 59865 7200.00000 0 -16883879.397 10156630.531 -16159918.730 10 0 59865 8100.00000 0 -15545377.915 8489230.980 -18322880.514 10 0 59865 9000.00000 0 -14209801.454 6517045.837 -20128978.188 10 0 59865 9900.00000 0 -12935350.194 4274300.724 -21543157.561 10 0 59865 10800.00000 0 -11774046.678 1806554.124 -22538032.495 10 0 59865 11700.00000 0 -10769561.478 -830960.604 -23094409.119 10 0 59865 12600.00000 0 -9955412.960 -3575399.059 -23201647.367 10 0 59865 13500.00000 0 -9353615.889 -6358689.112 -22857853.991 10 0 59865 14400.00000 0 -8973834.220 -9110134.292 -22069904.434 10 0 59865 15300.00000 0 -8813072.000 -11759128.912 -20853294.376 10 0 59865 16200.00000 0 -8855913.466 -14237872.459 -19231824.889 10 0 59865 17100.00000 0 -9075300.399 -16483971.204 -17237128.220 10 0 59865 18000.00000 0 -9433812.367 -18442819.872 -14908044.106 10 0 59865 18900.00000 0 -9885394.615 -20069665.783 -12289859.210 10 0 59865 19800.00000 0 -10377459.809 -21331271.169 -9433424.613 10 0 59865 20700.00000 0 -10853274.525 -22207106.141 -6394168.649 10 0 59865 21600.00000 0 -11254529.628 -22690024.366 -3231024.058 10 0 59865 22500.00000 0 -11523986.285 -22786394.988 -5290.013 10 0 59865 23400.00000 0 -11608086.358 -22515686.692 3220549.196 10 0 59865 24300.00000 0 -11459417.545 -21909522.640 6384026.449 10 0 59865 25200.00000 0 -11038929.822 -21010246.630 9423892.335 10 0 59865 26100.00000 0 -10317810.102 -19869061.032 12281291.288 10 0 59865 27000.00000 0 -9278936.295 -18543814.506 14900891.320 10 0 59865 27900.00000 0 -7917849.258 -17096531.861 17231946.361 10 0 59865 28800.00000 0 -6243201.162 -15590788.946 19229271.360 10 0 59865 29700.00000 0 -4276660.227 -14089041.571 20854112.157 10 0 59865 30600.00000 0 -2052274.116 -12650019.321 22074893.986 10 0 59865 31500.00000 0 384683.395 -11326292.413 22867834.548 10 0 59865 32400.00000 0 2979336.740 -10162112.613 23217410.091 10 0 59865 33300.00000 0 5669238.645 -9191617.994 23116665.336 10 0 59865 34200.00000 0 8386723.826 -8437476.498 22567360.778 10 0 59865 35100.00000 0 11061490.612 -7910025.236 21579953.669 10 0 59865 36000.00000 0 13623304.918 -7606942.047 20173411.875 10 0 59865 36900.00000 0 16004715.346 -7513463.894 18374862.815 10 0 59865 37800.00000 0 18143667.124 -7603143.785 16219082.774 10 0 59865 38700.00000 0 19985906.143 -7839115.280 13747834.963 10 0 59865 39600.00000 0 21487072.336 -8175812.043 11009067.916 10 0 59865 40500.00000 0 22614394.184 -8561070.347 8055988.826 10 0 59865 41400.00000 0 23347912.458 -8938525.628 4946029.230 10 0 59865 42300.00000 0 23681180.799 -9250201.271 1739723.256 10 0 59865 43200.00000 0 23621412.920 -9439178.943 -1500479.301 10 0 59865 44100.00000 0 23189069.691 -9452235.884 -4711441.027 10 0 59865 45000.00000 0 22416903.413 -9242335.607 -7830580.690 10 0 59865 45900.00000 0 21348499.966 -8770864.465 -10797107.098 10 0 59865 46800.00000 0 20036381.151 -8009517.399 -13553217.354 10 0 59865 47700.00000 0 18539748.434 -6941751.264 -16045234.636 10 0 59865 48600.00000 0 16921964.657 -5563742.810 -18224662.141 10 0 59865 49500.00000 0 15247881.182 -3884809.723 -20049131.899 10 0 59865 50400.00000 0 13581124.286 -1927276.322 -21483229.523 10 0 59865 51300.00000 0 11981455.829 274210.810 -22499178.988 10 0 59865 52200.00000 0 10502319.437 2673888.613 -23077374.663 10 0 59865 53100.00000 0 9188675.111 5216554.041 -23206751.034 10 0 59865 54000.00000 0 8075212.295 7839640.989 -22884984.083 10 0 59865 54900.00000 0 7185014.991 10475610.819 -22118521.573 10 0 59865 55800.00000 0 6528733.185 13054556.731 -20922442.856 10 0 59865 56700.00000 0 6104293.233 15506913.790 -19320152.019 10 0 59865 57600.00000 0 5897157.202 17766162.315 -17342911.201 10 0 59865 58500.00000 0 5881118.174 19771412.846 -15029223.911 10 0 59865 59400.00000 0 6019596.197 21469766.208 -12424080.754 10 0 59865 60300.00000 0 6267378.809 22818351.718 -9578082.451 10 0 59865 61200.00000 0 6572731.732 23785959.994 -6546457.304 10 0 59865 62100.00000 0 6879790.093 24354203.844 -3387992.053 10 0 59865 63000.00000 0 7131129.059 24518160.293 -163896.578 10 0 59865 63900.00000 0 7270405.515 24286468.254 3063375.774 10 0 59865 64800.00000 0 7244959.628 23680878.945 6231329.933 10 0 59865 65700.00000 0 7008266.965 22735278.673 9278630.180 10 0 59865 66600.00000 0 6522138.173 21494225.340 12146277.910 10 0 59865 67500.00000 0 5758573.746 20011060.004 14778744.075 10 0 59865 68400.00000 0 4701195.724 18345672.171 17125035.210 10 0 59865 69300.00000 0 3346195.690 16562011.677 19139673.206 10 0 59865 70200.00000 0 1702758.310 14725450.277 20783570.684 10 0 59865 71100.00000 0 -207058.778 12900102.103 22024785.774 10 0 59865 72000.00000 0 -2348985.536 11146213.880 22839142.118 10 0 59865 72900.00000 0 -4677715.181 9517732.827 23210702.394 10 0 59865 73800.00000 0 -7138548.375 8060152.961 23132086.086 10 0 59865 74700.00000 0 -9669439.825 6808729.217 22604624.882 10 0 59865 75600.00000 0 -12203364.435 5787133.781 21638351.877 10 0 59865 76500.00000 0 -14670906.581 5006610.858 20251823.621 10 0 59865 77400.00000 0 -17002966.150 4465665.737 18471777.079 10 0 59865 78300.00000 0 -19133469.655 4150301.673 16332626.627 10 0 59865 79200.00000 0 -21001973.753 4034795.342 13875809.333 10 0 59865 80100.00000 0 -22556052.188 4082978.803 11148989.940 10 0 59865 81000.00000 0 -23753365.672 4249974.307 8205140.006 10 0 59865 81900.00000 0 -24563326.969 4484308.728 5101508.477 10 0 59865 82800.00000 0 -24968290.075 4730317.816 1898503.769 10 0 59865 83700.00000 0 -24964212.381 4930737.613 -1341490.477 10 0 59865 84600.00000 0 -24560761.015 5029371.890 -4555341.976 10 0 59865 85500.00000 0 -23780858.303 4973720.878 -7680413.429 10 0 59866 0.00000 0 -22659685.529 4717457.930 -10655797.215 10 0 59866 900.00000 0 -21243186.699 4222647.009 -13423517.052 10 0 59866 1800.00000 0 -19586137.783 3461605.606 -15929667.713 10 0 59866 2700.00000 0 -17749861.878 2418332.160 -18125474.716 10 0 59866 3600.00000 0 -15799689.185 1089436.678 -19968248.501 10 0 59866 4500.00000 0 -13802269.297 -515465.682 -21422215.707 10 0 59866 5400.00000 0 -11822849.752 -2373915.142 -22459211.190 10 0 59866 6300.00000 0 -9922635.598 -4451315.391 -23059217.857 10 0 59866 7200.00000 0 -8156340.699 -6702159.424 -23210744.579 10 0 59866 8100.00000 0 -6570032.775 -9071721.581 -22911035.984 10 0 59866 9000.00000 0 -5199361.199 -11498144.864 -22166111.191 10 0 59866 9900.00000 0 -4068240.117 -13914836.136 -20990631.937 10 0 59866 10800.00000 0 -3188039.873 -16253069.368 -19407603.765 10 0 59866 11700.00000 0 -2557318.307 -18444688.665 -17447916.953 10 0 59866 12600.00000 0 -2162100.826 -20424798.881 -15149736.875 10 0 59866 13500.00000 0 -1976695.182 -22134332.494 -12557756.087 10 0 59866 14400.00000 0 -1965004.740 -23522386.754 -9722322.914 10 0 59866 15300.00000 0 -2082283.372 -24548234.725 -6698463.600 10 0 59866 16200.00000 0 -2277256.919 -25182927.627 -3544816.875 10 0 59866 17100.00000 0 -2494521.064 -25410422.808 -322501.354 10 0 59866 18000.00000 0 -2677114.242 -25228191.397 2906062.538 10 0 59866 18900.00000 0 -2769157.086 -24647281.252 6078353.755 10 0 59866 19800.00000 0 -2718447.324 -23691833.323 9132952.291 10 0 59866 20700.00000 0 -2478901.092 -22398072.059 12010718.562 10 0 59866 21600.00000 0 -2012738.074 -20812812.161 14655928.531 10 0 59866 22500.00000 0 -1292318.545 -18991543.743 17017343.404 10 0 59866 23400.00000 0 -301554.917 -16996175.278 19049193.990 10 0 59866 24300.00000 0 963162.199 -14892527.601 20712061.535 10 0 59866 25200.00000 0 2492563.308 -12747682.366 21973638.712 10 0 59866 26100.00000 0 4264643.089 -10627294.325 22809356.486 10 0 59866 27000.00000 0 6245343.160 -8592978.245 23202865.059 10 0 59866 27900.00000 0 8389748.394 -6699878.225 23146359.460 10 0 59866 28800.00000 0 10643749.206 -4994519.987 22640743.043 10 0 59866 29700.00000 0 12946102.959 -3513035.066 21695624.905 10 0 59866 30600.00000 0 15230810.743 -2279830.797 20329150.149 10 0 59866 31500.00000 0 17429712.172 -1306761.787 18567664.845 10 0 59866 32400.00000 0 19475191.253 -592837.811 16445220.733 10 0 59866 33300.00000 0 21302880.996 -124480.814 14002927.685 10 0 59866 34200.00000 0 22854253.695 123679.295 11288165.267 10 0 59866 35100.00000 0 24078987.894 187503.269 8353667.648 10 0 59866 36000.00000 0 24937011.810 111590.417 5256499.057 10 0 59866 36900.00000 0 25400136.073 -52849.939 2056939.711 10 0 59866 37800.00000 0 25453205.754 -250412.613 -1182695.699 10 0 59866 38700.00000 0 25094721.901 -424092.868 -4399283.051 10 0 59866 39600.00000 0 24336905.385 -517953.346 -7530132.148 10 0 59866 40500.00000 0 23205199.774 -479746.675 -10514222.638 10 0 59866 41400.00000 0 21737234.061 -263380.651 -13293406.882 10 0 59866 42300.00000 0 19981289.339 168880.348 -15813554.719 10 0 59866 43200.00000 0 17994334.720 844572.650 -18025616.673 10 0 59866 44100.00000 0 15839716.116 1779628.584 -19886584.023 10 0 59866 45000.00000 0 13584596.131 2977470.108 -21360326.577 10 0 59866 45900.00000 0 11297253.461 4428639.605 -22418291.919 10 0 59866 46800.00000 0 9044355.631 6110983.634 -23040053.016 10 0 59866 47700.00000 0 6888319.546 7990381.839 -23213694.299 10 0 59866 48600.00000 0 4884869.887 10021990.193 -22936029.819 10 0 59866 49500.00000 0 3080896.479 12151946.218 -22212650.400 10 0 59866 50400.00000 0 1512698.729 14319464.478 -21057800.067 10 0 59866 51300.00000 0 204688.510 16459234.618 -19494085.254 10 0 59866 52200.00000 0 -831396.626 18504021.857 -17552023.357 10 0 59866 53100.00000 0 -1596739.406 20387361.528 -15269440.143 10 0 59866 54000.00000 0 -2105140.234 22046235.743 -12690728.231 10 0 59866 54900.00000 0 -2382181.068 23423621.130 -9865981.285 10 0 59866 55800.00000 0 -2463892.879 24470802.117 -6850020.881 10 0 59866 56700.00000 0 -2394984.398 25149354.143 -3701334.850 10 0 59866 57600.00000 0 -2226707.870 25432714.953 -480947.422 10 0 59866 58500.00000 0 -2014452.397 25307279.257 2748757.144 10 0 59866 59400.00000 0 -1815166.637 24772971.847 5925235.147 10 0 59866 60300.00000 0 -1684719.431 23843275.822 8986985.579 10 0 59866 61200.00000 0 -1675309.379 22544715.078 11874731.074 10 0 59866 62100.00000 0 -1833032.155 20915812.697 14532555.636 10 0 59866 63000.00000 0 -2195707.776 19005568.372 16908977.957 10 0 59866 63900.00000 0 -2791059.109 16871517.729 18957940.320 10 0 59866 64800.00000 0 -3635318.500 14577453.472 20639694.858 10 0 59866 65700.00000 0 -4732321.697 12190902.047 21921570.701 10 0 59866 66600.00000 0 -6073128.185 9780459.591 22778607.688 10 0 59866 67500.00000 0 -7636185.497 7413096.627 23194044.666 10 0 59866 68400.00000 0 -9388032.607 5151542.324 23159652.862 10 0 59866 69300.00000 0 -11284515.245 3051856.132 22675907.424 10 0 59866 70200.00000 0 -13272464.747 1161287.024 21751993.045 10 0 59866 71100.00000 0 -15291772.581 -483491.021 20405642.384 10 0 59866 72000.00000 0 -17277775.860 -1857693.798 18662809.077 10 0 59866 72900.00000 0 -19163855.659 -2949236.972 16557180.143 10 0 59866 73800.00000 0 -20884140.466 -3759007.303 14129535.714 10 0 59866 74700.00000 0 -22376201.818 -4300583.248 11426967.242 10 0 59866 75600.00000 0 -23583628.820 -4599416.423 8501968.296 10 0 59866 76500.00000 0 -24458372.624 -4691508.299 5411415.004 10 0 59866 77400.00000 0 -24962760.963 -4621638.171 2215455.931 10 0 59866 78300.00000 0 -25071096.488 -4441217.906 -1023666.622 10 0 59866 79200.00000 0 -24770770.000 -4205865.284 -4242840.060 10 0 59866 80100.00000 0 -24062840.274 -3972800.117 -7379324.514 10 0 59866 81000.00000 0 -22962054.957 -3798175.226 -10371989.708 10 0 59866 81900.00000 0 -21496311.067 -3734457.289 -13162520.029 10 0 59866 82800.00000 0 -19705577.684 -3827970.403 -15696562.695 10 0 59866 83700.00000 0 -17640326.528 -4116708.172 -17924795.490 10 0 59866 84600.00000 0 -15359537.064 -4628508.308 -19803892.364 10 0 59866 85500.00000 0 -12928360.855 -5379667.963 -21297367.628 10 0 59867 0.00000 0 -10415544.178 -6374058.816 -22376282.294 10 0 59867 900.00000 0 -7890716.205 -7602779.999 -23019799.772 10 0 59867 1800.00000 0 -5421659.957 -9044362.023 -23215579.553 10 0 59867 2700.00000 0 -3071675.428 -10665514.560 -22960004.199 10 0 59867 3600.00000 0 -897147.638 -12422384.972 -22258234.874 10 0 59867 4500.00000 0 1054581.377 -14262274.830 -21124096.153 10 0 59867 5400.00000 0 2746949.423 -16125742.066 -19579793.342 10 0 59867 6300.00000 0 4155449.502 -17949000.570 -17655468.728 10 0 59867 7200.00000 0 5268392.800 -19666516.801 -15388606.113 10 0 59867 8100.00000 0 6087129.985 -21213695.035 -12823295.754 10 0 59867 9000.00000 0 6625724.118 -22529539.412 -10009374.187 10 0 59867 9900.00000 0 6910091.131 -23559182.025 -7001455.883 10 0 59867 10800.00000 0 6976645.994 -24256172.069 -3857875.376 10 0 59867 11700.00000 0 6870513.033 -24584431.092 -639560.191 10 0 59867 12600.00000 0 6643376.744 -24519793.310 2591143.822 10 0 59867 13500.00000 0 6351064.262 -24051067.222 5771672.458 10 0 59867 14400.00000 0 6050961.498 -23180574.629 8840445.763 10 0 59867 15300.00000 0 5799371.716 -21924144.720 11738050.536 10 0 59867 16200.00000 0 5648927.460 -20310563.440 14408380.657 10 0 59867 17100.00000 0 5646164.455 -18380500.642 16799713.990 10 0 59867 18000.00000 0 5829359.233 -16184959.090 18865705.816 10 0 59867 18900.00000 0 6226721.322 -13783308.820 20566280.456 10 0 59867 19800.00000 0 6855016.228 -11240987.342 21868404.573 10 0 59867 20700.00000 0 7718677.623 -8626959.933 22746727.670 10 0 59867 21600.00000 0 8809447.147 -6011043.968 23184077.747 10 0 59867 22500.00000 0 10106558.491 -3461206.971 23171802.447 10 0 59867 23400.00000 0 11577459.968 -1040949.395 22709948.666 10 0 59867 24300.00000 0 13179047.478 1193120.213 21807276.372 10 0 59867 25200.00000 0 14859358.513 3193417.542 20481105.244 10 0 59867 26100.00000 0 16559658.274 4923133.911 18756995.709 10 0 59867 27000.00000 0 18216832.321 6357533.786 16668269.090 10 0 59867 27900.00000 0 19765986.676 7484744.089 14255374.590 10 0 59867 28800.00000 0 21143146.903 8306001.874 11565114.123 10 0 59867 29700.00000 0 22287942.807 8835349.724 8649738.998 10 0 59867 30600.00000 0 23146165.205 9098791.500 5565935.313 10 0 59867 31500.00000 0 23672085.982 9132944.047 2373717.801 10 0 59867 32400.00000 0 23830442.131 8983242.257 -864746.026 10 0 59867 33300.00000 0 23597998.443 8701774.169 -4086357.680 10 0 59867 34200.00000 0 22964621.236 8344838.973 -7228330.297 10 0 59867 35100.00000 0 21933816.409 7970332.895 -10229426.375 10 0 59867 36000.00000 0 20522708.030 7635075.519 -13031164.953 10 0 59867 36900.00000 0 18761457.771 7392191.602 -15578973.127 10 0 59867 37800.00000 0 16692149.482 7288661.024 -17823258.250 10 0 59867 38700.00000 0 14367186.066 7363142.019 -19720379.062 10 0 59867 39600.00000 0 11847266.569 7644160.829 -21233496.296 10 0 59867 40500.00000 0 9199029.005 8148744.890 -22333286.250 10 0 59867 41400.00000 0 6492458.211 8881557.480 -22998503.886 10 0 59867 42300.00000 0 3798167.619 9834570.073 -23216385.210 10 0 59867 43200.00000 0 1184668.458 10987285.755 -22982882.215 10 0 59867 44100.00000 0 -1284260.112 12307503.658 -22302726.955 10 0 59867 45000.00000 0 -3551991.156 13752591.551 -21189324.675 10 0 59867 45900.00000 0 -5571161.037 15271212.565 -19664479.226 10 0 59867 46800.00000 0 -7305385.297 16805433.112 -17757956.982 10 0 59867 47700.00000 0 -8730510.006 18293123.284 -15506898.537 10 0 59867 48600.00000 0 -9835348.811 19670549.115 -12955090.115 10 0 59867 49500.00000 0 -10621877.471 20875048.218 -10152109.114 10 0 59867 50400.00000 0 -11104880.081 21847677.050 -7152360.570 10 0 59867 51300.00000 0 -11311064.086 22535719.414 -4014023.149 10 0 59867 52200.00000 0 -11277683.044 22894951.703 -797924.903 10 0 59867 53100.00000 0 -11050726.379 22891570.582 2433629.634 10 0 59867 54000.00000 0 -10682753.223 22503702.935 5618058.750 10 0 59867 54900.00000 0 -10230461.947 21722435.212 8693706.585 10 0 59867 55800.00000 0 -9752097.766 20552319.269 11601027.144 10 0 59867 56700.00000 0 -9304807.321 19011333.415 14283727.161 10 0 59867 57600.00000 0 -8942051.105 17130299.774 16689846.549 10 0 59867 58500.00000 0 -8711182.143 14951781.456 18772756.295 10 0 59867 59400.00000 0 -8651292.297 12528504.348 20492055.408 10 0 59867 60300.00000 0 -8791416.546 9921367.686 21814350.297 10 0 59867 61200.00000 0 -9149170.815 7197124.577 22713902.023 10 0 59867 62100.00000 0 -9729881.092 4425827.051 23173129.235 10 0 59867 63000.00000 0 -10526241.443 1678139.975 23182957.038 10 0 59867 63900.00000 0 -11518516.680 -977366.131 22743004.604 10 0 59867 64800.00000 0 -12675283.001 -3476832.337 21861607.165 10 0 59867 65700.00000 0 -13954677.504 -5763530.875 20555670.822 10 0 59867 66600.00000 0 -15306106.140 -7789986.923 18850361.628 10 0 59867 67500.00000 0 -16672340.221 -9519714.542 16778633.482 10 0 59867 68400.00000 0 -17991914.846 -10928494.264 14380602.415 10 0 59867 69300.00000 0 -19201729.322 -12005138.589 11702778.144 10 0 59867 70200.00000 0 -20239740.414 -12751712.979 8797166.688 10 0 59867 71100.00000 0 -21047634.643 -13183202.784 5720260.857 10 0 59867 72000.00000 0 -21573365.980 -13326639.937 2531938.127 10 0 59867 72900.00000 0 -21773450.452 -13219726.488 -705712.282 10 0 59867 73800.00000 0 -21614919.040 -12909013.673 -3929609.496 10 0 59867 74700.00000 0 -21076844.576 -12447714.493 -7076923.117 10 0 59867 75600.00000 0 -20151376.436 -11893243.742 -10086311.774 10 0 59867 76500.00000 0 -18844237.891 -11304591.255 -12899132.359 10 0 59867 77400.00000 0 -17174664.092 -10739641.342 -15460594.813 10 0 59867 78300.00000 0 -15174782.715 -10252553.589 -17720838.727 10 0 59867 79200.00000 0 -12888463.120 -9891317.307 -19635909.884 10 0 59867 80100.00000 0 -10369682.659 -9695584.194 -21168617.182 10 0 59867 81000.00000 0 -7680479.039 -9694871.411 -22289253.300 10 0 59867 81900.00000 0 -4888574.976 -9907211.131 -22976165.467 10 0 59867 82800.00000 0 -2064774.926 -10338303.236 -23216165.991 10 0 59867 83700.00000 0 719757.291 -10981206.246 -23004775.602 10 0 59867 84600.00000 0 3396226.707 -11816578.598 -22346296.015 10 0 59867 85500.00000 0 5900828.117 -12813459.129 -21253711.499 10 0 59868 0.00000 0 8177151.536 -13930552.867 -19748422.594 10 0 59868 900.00000 0 10178274.768 -15117967.872 -17859817.214 10 0 59868 1800.00000 0 11868454.811 -16319327.977 -15624690.376 10 0 59868 2700.00000 0 13224353.913 -17474174.318 -13086521.619 10 0 59868 3600.00000 0 14235748.418 -18520553.207 -10294626.414 10 0 59868 4500.00000 0 14905694.391 -19397682.390 -7303197.487 10 0 59868 5400.00000 0 15250145.180 -20048583.954 -4170254.710 10 0 59868 6300.00000 0 15297038.949 -20422573.835 -956523.748 10 0 59868 7200.00000 0 15084896.053 -20477503.914 2275735.037 10 0 59868 8100.00000 0 14660986.358 -20181663.119 5463925.149 10 0 59868 9000.00000 0 14079144.283 -19515258.132 8546317.368 10 0 59868 9900.00000 0 13397323.631 -18471411.799 11463235.198 10 0 59868 10800.00000 0 12674995.003 -17056637.266 14158200.250 10 0 59868 11700.00000 0 11970494.760 -15290767.487 16579016.200 10 0 59868 12600.00000 0 11338436.427 -13206342.208 18678771.138 10 0 59868 13500.00000 0 10827292.678 -10847476.722 20416739.821 10 0 59868 14400.00000 0 10477248.959 -8268257.934 21759169.141 10 0 59868 15300.00000 0 10318418.567 -5530732.700 22679932.102 10 0 59868 16200.00000 0 10369494.159 -2702570.072 23161038.076 10 0 59868 17100.00000 0 10636892.755 145507.470 23192989.380 10 0 59868 18000.00000 0 11114430.978 2942418.917 22774976.928 10 0 59868 18900.00000 0 11783545.471 5619435.543 21914910.417 10 0 59868 19800.00000 0 12614050.797 8112796.330 20629281.338 10 0 59868 20700.00000 0 13565404.717 10366120.036 18942860.137 10 0 59868 21600.00000 0 14588429.334 12332514.019 16888231.865 10 0 59868 22500.00000 0 15627417.187 13976291.934 14505177.808 10 0 59868 23400.00000 0 16622534.621 15274228.232 11839913.724 10 0 59868 24300.00000 0 17512421.687 16216296.565 8944198.439 10 0 59868 25200.00000 0 18236878.765 16805860.638 5874329.391 10 0 59868 26100.00000 0 18739525.775 17059309.135 2690044.576 10 0 59868 27000.00000 0 18970320.340 17005150.000 -546647.428 10 0 59868 27900.00000 0 18887826.826 16682602.619 -3772685.777 10 0 59868 28800.00000 0 18461138.433 16139747.994 -6925198.975 10 0 59868 29700.00000 0 17671369.198 15431316.268 -9942744.156 10 0 59868 30600.00000 0 16512651.111 14616206.587 -12766518.336 10 0 59868 31500.00000 0 14992592.864 13754845.843 -15341516.411 10 0 59868 32400.00000 0 13132179.848 12906499.665 -17617612.130 10 0 59868 33300.00000 0 10965119.035 12126650.855 -19550540.061 10 0 59868 34200.00000 0 8536656.145 11464557.197 -21102758.834 10 0 59868 35100.00000 0 5901914.869 10961092.532 -22244178.890 10 0 59868 36000.00000 0 3123828.020 10646962.374 -22952740.940 10 0 59868 36900.00000 0 270747.525 10541369.032 -23214834.581 10 0 59868 37800.00000 0 -2586166.739 10651181.728 -23025549.994 10 0 59868 38700.00000 0 -5375670.456 10970645.560 -22388758.948 10 0 59868 39600.00000 0 -8029157.567 11481640.269 -21317024.713 10 0 59868 40500.00000 0 -10483269.656 12154476.566 -19831343.761 10 0 59868 41400.00000 0 -12682284.641 12949195.268 -17960725.208 10 0 59868 42300.00000 0 -14580186.857 13817313.521 -15741616.946 10 0 59868 43200.00000 0 -16142334.281 14703943.875 -13217190.174 10 0 59868 44100.00000 0 -17346655.540 15550196.598 -10436496.488 10 0 59868 45000.00000 0 -18184328.884 16295763.973 -7453514.140 10 0 59868 45900.00000 0 -18659917.021 16881577.979 -4326101.886 10 0 59868 46800.00000 0 -18790954.135 17252429.830 -1114880.561 10 0 59868 47700.00000 0 -18607004.120 17359441.630 2117936.173 10 0 59868 48600.00000 0 -18148230.875 17162286.661 5309739.648 10 0 59868 49500.00000 0 -17463541.575 16631065.359 8398729.946 10 0 59868 50400.00000 0 -16608381.335 15747758.392 11325102.797 10 0 59868 51300.00000 0 -15642271.953 14507195.821 14032197.427 10 0 59868 52200.00000 0 -14626197.731 12917501.238 16467583.981 10 0 59868 53100.00000 0 -13619947.593 10999991.549 18584070.263 10 0 59868 54000.00000 0 -12679524.282 8788535.293 20340609.240 10 0 59868 54900.00000 0 -11854728.607 6328394.647 21703090.495 10 0 59868 55800.00000 0 -11187019.400 3674597.474 22645000.902 10 0 59868 56700.00000 0 -10707738.555 889904.984 23147942.096 10 0 59868 57600.00000 0 -10436775.490 -1957542.718 23201994.733 10 0 59868 58500.00000 0 -10381727.384 -4796807.487 22805922.130 10 0 59868 59400.00000 0 -10537591.161 -7556855.116 21967208.601 10 0 59868 60300.00000 0 -10887001.218 -10169267.798 20701930.670 10 0 59868 61200.00000 0 -11401004.243 -12570855.358 19034462.286 10 0 59868 62100.00000 0 -12040339.947 -14706057.279 16997018.279 10 0 59868 63000.00000 0 -12757175.136 -16529035.635 14629043.323 10 0 59868 63900.00000 0 -13497219.100 -18005371.239 11976456.969 10 0 59868 64800.00000 0 -14202131.713 -19113291.649 9090768.251 10 0 59868 65700.00000 0 -14812122.647 -19844378.899 6028076.381 10 0 59868 66600.00000 0 -15268631.338 -20203726.621 2847976.825 10 0 59868 67500.00000 0 -15516973.281 -20209539.573 -387605.652 10 0 59868 68400.00000 0 -15508839.156 -19892192.385 -3615633.494 10 0 59868 69300.00000 0 -15204539.172 -19292787.550 -6773197.402 10 0 59868 70200.00000 0 -14574895.676 -18461274.371 -9798756.313 10 0 59868 71100.00000 0 -13602702.058 -17454209.481 -12633350.600 10 0 59868 72000.00000 0 -12283684.627 -16332255.037 -15221763.228 10 0 59868 72900.00000 0 -10626925.520 -15157521.846 -17513605.010 10 0 59868 73800.00000 0 -8654727.856 -13990871.130 -19464301.870 10 0 59868 74700.00000 0 -6401928.360 -12889290.062 -21035964.318 10 0 59868 75600.00000 0 -3914686.151 -11903452.631 -22198122.194 10 0 59868 76500.00000 0 -1248798.550 -11075568.908 -22928310.730 10 0 59868 77400.00000 0 1532385.314 -10437613.131 -23212497.261 10 0 59868 78300.00000 0 4360365.748 -10010004.399 -23045341.282 10 0 59868 79200.00000 0 7164108.393 -9800794.256 -22430283.936 10 0 59868 80100.00000 0 9872765.833 -9805393.864 -21379466.355 10 0 59868 81000.00000 0 12418392.188 -10006850.526 -19913479.557 10 0 59868 81900.00000 0 14738538.570 -10376660.245 -18060951.686 10 0 59868 82800.00000 0 16778622.520 -10876080.633 -15857981.420 10 0 59868 83700.00000 0 18493974.398 -11457887.608 -13347429.101 10 0 59868 84600.00000 0 19851477.237 -12068501.025 -10578079.661 10 0 59868 85500.00000 0 20830733.581 -12650389.105 -7603693.834 99